CHINASAT 6B

导读 | 星芒AI

CHINASAT 6B 是中国一颗用于广播电视传输的通信卫星,由中国航天科技集团研制,于2009年发射。该卫星位于东经115.5度轨道位置,主要承担C波段和Ku波段的广播电视信号传输任务,覆盖中国及周边地区,提升了全国广播电视的传输质量和覆盖范围,为数字电视和广播业务提供了重要支持。

基本信息
目录编号:
31800
目录名称:
CHINASAT 6B
国际标识:
2007-031A
轨道中心:
EARTH
卫星名称:
CHINASAT 6B
卫星全名:
--
卫星状态:
在轨 (已飞行6694 天)
发射日期:
2007-07-05 UTC
国别 :
中国 (CN)
星等 :
--
轨道信息
数据来源 国际轨道数据 AOE轨道数据
星历时间 2025-11-01T04:21:22+0800
23小时前
查看轨道信息
2025-11-02T02:00:00+0800
1小时前
查看轨道信息
半长轴 42164.14km 42164.252km
偏心率 0.000513 0.0005312
轨道倾角 1.801° 1.803°
近地点辐角 156.570° 157.638°
升交点赤经 84.201° 84.193°
平近点角 218.403° 182.896°
近地点 35764.374km 35763.719km
远地点 35807.636km 35808.515km
周期 1436.067分钟 1436.072分钟
每日圈数 1.002739 1.002735
详细信息
使用方式:
暂无
2D轨道图
3D轨道图
轨道高度分析图
轨道倾角分析图
轨道综合分析图
查看轨道综合分析图